Weather reports worldwide

Advertisment
Grünow, Germany (10289): temperature & dewpoint: 10.01.2018 08:00:00 - 16.01.2018 08:00:00 (CET)Grünow, Germany (10289): temperature 5cm & temperature -5cm: 10.01.2018 08:00:00 - 16.01.2018 08:00:00 (CET)Grünow, Germany (10289): temperature -20cm & temperature -100cm: 10.01.2018 08:00:00 - 16.01.2018 08:00:00 (CET)Grünow, Germany (10289): wind speed & gusts: 10.01.2018 08:00:00 - 16.01.2018 08:00:00 (CET)Grünow, Germany (10289): wind direction: 10.01.2018 08:00:00 - 16.01.2018 08:00:00 (CET)Grünow, Germany (10289): reduced air pressure: 10.01.2018 08:00:00 - 16.01.2018 08:00:00 (CET)Grünow, Germany (10289): visibility: 10.01.2018 08:00:00 - 16.01.2018 08:00:00 (CET)Grünow, Germany (10289): sunshine duration: 10.01.2018 08:00:00 - 16.01.2018 08:00:00 (CET)Grünow, Germany (10289): precipitation: 10.01.2018 08:00:00 - 16.01.2018 08:00:00 (CET)
Date & Time tt [°C] td [°C] tt 5cm [°C] tt -5cm [°C] tt -20cm [°C] tt -100cm [°C] ff [km/h] ff [kn] fx [km/h] fx [kn] dd ppp [hPa] vv [km] sd [min] rr [mm]
16.01.2018 08:00:00 1,1 0,5 0,4 -0,3 0,2 3,9 21 11 36 19 S 990,5 29 0 0,0
16.01.2018 07:00:00 0,8 0,3 0,0 -0,3 0,2 3,9 31 17 49 26 S 990,6 15 0 0,5
16.01.2018 06:00:00 -0,1 -0,3 0,0 -0,3 0,3 3,9 31 17 49 26 S 991,0 1,6 0 1,4
16.01.2018 05:00:00 -0,4 -1,0 -0,3 -0,3 0,2 3,9 33 18 54 29 S 992,0 1,5 0 0,1
16.01.2018 04:00:00 -0,7 -1,4 -0,5 -0,4 0,3 4,0 40 22 56 30 SSE 993,2 2,0 0 0,2
16.01.2018 03:00:00 -0,8 -1,9 -0,8 -0,4 0,3 4,0 42 23 63 34 SSE 994,7 1,9 0 0,0
16.01.2018 02:00:00 -0,5 -2,5 -0,6 -0,5 0,3 4,0 45 24 63 34 SSE 996,3 5 0 0,0
16.01.2018 01:00:00 0,1 -3,8 -0,2 -0,5 0,3 4,0 41 22 59 32 SSE 997,8 14 0 0,0
16.01.2018 00:00:00 0,0 -3,8 -0,3 -0,5 0,3 4,0 39 21 61 33 SSE 999,5 16 0 0,0
15.01.2018 23:00:00 -0,2 -3,8 -0,6 -0,5 0,3 4,0 43 23 59 32 SSE 1000,9 14 0 0,0
15.01.2018 22:00:00 -0,4 -3,5 -1,0 -0,4 0,3 4,0 35 19 63 34 SSE 1002,8 13 0 0,0
15.01.2018 21:00:00 -0,4 -3,3 -1,0 -0,4 0,3 4,0 44 24 58 31 SSE 1004,3 12 0 0,0
15.01.2018 20:00:00 0,0 -3,8 -0,3 -0,4 0,3 4,0 39 21 61 33 SSE 1006,1 15 0 0,0
15.01.2018 19:00:00 0,3 -3,7 0,0 -0,4 0,3 4,0 38 21 53 28 SSE 1007,3 16 0 0,0
15.01.2018 18:00:00 0,5 -3,6 0,0 -0,4 0,3 4,0 39 21 47 25 SSE 1008,4 17 0 0,0
15.01.2018 17:00:00 0,4 -3,5 -0,4 -0,3 0,3 4,0 35 19 46 25 SSE 1009,9 18 0 0,0
15.01.2018 16:00:00 0,5 -3,4 -0,2 -0,3 0,3 4,0 36 20 48 26 SSE 1011,4 14 5 0,0
15.01.2018 15:00:00 0,2 -3,5 -0,3 -0,3 0,3 4,0 37 20 52 28 SSE 1013,0 13 55 0,0
15.01.2018 14:00:00 0,3 -3,8 0,4 -0,3 0,3 4,0 36 20 50 27 SSE 1014,3 11 60 0,0
15.01.2018 13:00:00 -0,2 -4,2 0,4 -0,4 0,3 4,0 39 21 53 29 SSE 1015,8 10 60 0,0
15.01.2018 12:00:00 -0,8 -4,6 -0,2 -0,6 0,3 4,0 33 18 48 26 SSE 1017,5 9 60 0,0
15.01.2018 11:00:00 -2,2 -5,3 -1,7 -1,0 0,3 4,0 33 18 44 24 SSE 1019,0 8 60 0,0
15.01.2018 10:00:00 -3,0 -5,6 -3,5 -1,0 0,3 4,0 29 16 42 23 SE 1020,0 6 21 0,0
15.01.2018 09:00:00 -3,6 -5,7 -3,5 -1,1 0,3 4,0 26 14 37 20 SE 1020,8 6 0 0,0
15.01.2018 08:00:00 -3,8 -5,9 -3,7 -1,1 0,3 4,0 25 14 37 20 SE 1021,8 7 0 0,0
15.01.2018 07:00:00 -4,1 -6,3 -4,0 -1,3 0,4 4,0 24 13 35 19 SE 1022,5 7 0 0,0
15.01.2018 06:00:00 -4,2 -6,5 -4,8 -1,4 0,4 4,0 23 13 37 20 SE 1023,2 8 0 0,0
15.01.2018 05:00:00 -3,9 -6,3 -4,7 -1,3 0,4 4,1 24 13 40 21 SE 1024,1 8 0 0,0
15.01.2018 04:00:00 -3,7 -6,0 -4,5 -1,2 0,4 4,1 20 11 32 17 SE 1025,0 9 0 0,0
15.01.2018 03:00:00 -3,5 -6,0 -4,2 -1,2 0,5 4,1 18 10 29 16 SE 1025,9 9 0 0,0
15.01.2018 02:00:00 -3,4 -5,9 -4,4 -1,0 0,5 4,1 14 7 26 14 SE 1026,8 10 0 0,0
15.01.2018 01:00:00 -2,9 -5,8 -3,8 -0,9 0,5 4,1 18 10 33 18 SE 1027,4 10 0 0,0
15.01.2018 00:00:00 -2,7 -5,7 -3,5 -0,7 0,5 4,1 25 14 35 19 SSE 1027,9 10 0 0,0
14.01.2018 23:00:00 -2,4 -5,8 -3,1 -0,6 0,5 4,1 23 13 40 22 SE 1028,6 10 0 0,0
14.01.2018 22:00:00 -2,2 -5,7 -3,1 -0,4 0,5 4,1 21 11 36 19 SSE 1028,4 11 0 0,0
14.01.2018 21:00:00 -1,9 -5,8 -2,1 -0,4 0,6 4,1 19 10 28 15 SE 1028,9 12 0 0,0
14.01.2018 20:00:00 -1,9 -5,7 -2,1 -0,3 0,6 4,1 14 7 22 12 SE 1029,2 12 0 0,0
14.01.2018 19:00:00 -1,9 -5,8 -2,0 -0,3 0,6 4,1 15 8 29 15 SE 1029,5 11 0 0,0
14.01.2018 18:00:00 -2,1 -6,2 -2,2 -0,3 0,6 4,1 19 11 33 18 SE 1029,8 12 0 0,0
14.01.2018 17:00:00 -2,0 -6,1 -2,1 -0,3 0,6 4,1 16 8 29 16 SE 1030,1 14 0 0,0
14.01.2018 16:00:00 -2,0 -6,4 -2,1 -0,2 0,6 4,1 15 8 32 17 SE 1030,4 11 0 0,0
14.01.2018 15:00:00 -2,0 -6,8 -1,9 -0,2 0,6 4,1 17 9 31 17 ESE 1030,4 12 0 0,0
14.01.2018 14:00:00 -2,0 -6,9 -1,8 -0,2 0,6 4,1 17 9 31 17 SE 1030,6 18 0 0,0
14.01.2018 13:00:00 -1,9 -7,0 -1,7 -0,2 0,6 4,1 21 11 32 17 ESE 1031,0 19 0 0,0
14.01.2018 12:00:00 -2,0 -7,2 -2,0 -0,3 0,6 4,1 21 11 36 19 SE 1031,6 18 0 0,0
14.01.2018 11:00:00 -2,2 -7,3 -2,3 -0,3 0,6 4,1 24 13 36 19 SE 1031,9 18 13 0,0
14.01.2018 10:00:00 -2,6 -6,2 -3,2 -0,3 0,7 4,1 18 10 26 14 ESE 1031,9 15 53 0,0
14.01.2018 09:00:00 -3,2 -6,1 -4,1 -0,2 0,7 4,1 16 8 23 13 ESE 1031,6 14 0 0,0
14.01.2018 08:00:00 -3,0 -5,8 -3,9 -0,1 0,7 4,1 16 9 27 14 E 1031,7 14 0 0,0
14.01.2018 07:00:00 -2,1 -5,7 -3,1 -0,1 0,7 4,1 19 11 33 18 ESE 1031,7 15 0 0,0
14.01.2018 06:00:00 -1,3 -5,4 -1,8 0,0 0,7 4,1 18 10 29 16 ESE 1031,7 15 0 0,0
14.01.2018 05:00:00 -1,3 -5,5 -2,0 0,0 0,7 4,1 15 8 23 12 ESE 1031,8 17 0 0,0
14.01.2018 04:00:00 -0,9 -5,4 -1,4 0,0 0,7 4,1 16 9 28 15 ESE 1032,0 17 0 0,0
14.01.2018 03:00:00 -0,5 -5,2 -0,8 0,0 0,7 4,1 19 10 29 16 ESE 1032,1 18 0 0,0
14.01.2018 02:00:00 -0,5 -5,3 -0,7 0,0 0,7 4,1 19 10 32 17 ESE 1031,9 18 0 0,0
14.01.2018 01:00:00 -0,5 -5,4 -0,7 0,0 0,7 4,2 17 9 31 17 ESE 1032,2 18 0 0,0
14.01.2018 00:00:00 -0,4 -5,8 -0,6 0,0 0,7 4,2 22 12 34 19 SE 1032,8 18 0 0,0
13.01.2018 23:00:00 -0,4 -5,5 -0,6 0,0 0,7 4,2 20 11 38 21 SE 1033,0 20 0 0,0
13.01.2018 22:00:00 -0,4 -5,8 -0,6 0,1 0,7 4,2 24 13 38 20 SE 1033,2 23 0 0,0
13.01.2018 21:00:00 -0,4 -5,4 -0,5 0,1 0,7 4,2 19 10 36 19 ESE 1033,5 20 0 0,0
13.01.2018 20:00:00 -0,4 -4,6 -0,6 0,1 0,7 4,2 17 9 36 20 ESE 1033,5 17 0 0,0
13.01.2018 19:00:00 -0,5 -4,5 -0,7 0,1 0,7 4,2 19 10 31 17 ESE 1033,7 19 0 0,0
13.01.2018 18:00:00 -0,4 -4,5 -0,6 0,1 0,7 4,2 16 9 31 17 ESE 1033,5 10 0 0,0
13.01.2018 17:00:00 -0,3 -5,0 -0,5 0,1 0,7 4,2 16 9 36 19 SE 1033,5 22 0 0,0
13.01.2018 16:00:00 -0,4 -5,4 -0,5 0,1 0,7 4,2 18 10 34 18 SE 1033,4 23 0 0,0
13.01.2018 15:00:00 -0,8 -5,4 -0,8 0,1 0,7 4,2 14 8 29 16 SE 1033,5 20 0 0,0
13.01.2018 14:00:00 -1,1 -5,4 -1,1 0,1 0,7 4,2 19 10 35 19 ESE 1034,1 20 0 0,0
13.01.2018 13:00:00 -1,1 -5,4 -1,1 0,1 0,7 4,2 21 11 36 19 SE 1034,4 24 0 0,0
13.01.2018 12:00:00 -1,2 -4,7 -1,1 0,1 0,7 4,2 20 11 32 18 ESE 1034,8 17 0 0,0
13.01.2018 11:00:00 -1,0 -4,1 -0,9 0,1 0,7 4,2 21 11 42 23 ESE 1035,0 27 25 0,0
13.01.2018 10:00:00 -1,3 -4,2 -1,3 0,1 0,7 4,2 28 15 41 22 ESE 1034,6 20 0 0,0
13.01.2018 09:00:00 -1,0 -3,5 -1,2 0,1 0,7 4,2 24 13 37 20 ESE 1034,3 12 0 0,0
13.01.2018 08:00:00 -0,7 -2,9 -0,8 0,1 0,7 4,2 21 11 36 19 ESE 1033,9 9 0 0,0
13.01.2018 07:00:00 -0,6 -2,6 -0,6 0,1 0,7 4,2 26 14 35 19 ESE 1033,7 8 0 0,0
13.01.2018 06:00:00 -0,7 -2,4 -0,7 0,1 0,7 4,2 17 9 29 16 ESE 1033,9 7 0 0,0
13.01.2018 05:00:00 -0,7 -2,3 -0,7 0,1 0,7 4,2 20 11 29 16 ESE 1033,8 6 0 0,0
13.01.2018 04:00:00 -0,7 -2,1 -0,7 0,1 0,7 4,2 20 11 29 15 ESE 1033,8 5 0 0,0
13.01.2018 03:00:00 -0,7 -2,2 -0,8 0,1 0,7 4,3 17 9 26 14 ESE 1033,9 4,3 0 0,0
13.01.2018 02:00:00 -0,7 -2,1 -0,8 0,1 0,7 4,3 16 9 28 15 ESE 1033,6 4,1 0 0,0
13.01.2018 01:00:00 -0,6 -1,8 -0,6 0,1 0,7 4,3 22 12 32 17 ESE 1033,3 3,3 0 0,0
13.01.2018 00:00:00 -0,6 -1,5 -0,7 0,1 0,7 4,3 22 12 32 17 ESE 1033,4 2,8 0 0,0
12.01.2018 23:00:00 -0,2 -1,9 -0,3 0,1 0,7 4,3 19 10 30 16 ESE 1033,5 5 0 0,0
12.01.2018 22:00:00 -0,3 -1,4 -0,5 0,1 0,7 4,3 21 11 29 16 ESE 1033,3 3,4 0 0,0
12.01.2018 21:00:00 0,0 -1,3 0,0 0,1 0,7 4,3 14 8 29 16 ESE 1032,9 4,4 0 0,0
12.01.2018 20:00:00 0,1 -1,1 0,1 0,1 0,7 4,3 18 10 26 14 ESE 1032,4 4,9 0 0,0
12.01.2018 19:00:00 0,2 -0,9 0,0 0,1 0,7 4,3 16 9 29 16 ESE 1032,0 4,3 0 0,0
12.01.2018 18:00:00 0,2 -0,7 0,0 0,2 0,7 4,3 19 10 29 16 ESE 1031,7 3,8 0 0,0
12.01.2018 17:00:00 0,3 -0,9 0,1 0,3 0,7 4,3 16 9 28 15 E 1031,4 4,5 0 0,0
12.01.2018 16:00:00 0,5 -0,6 0,3 0,4 0,7 4,3 16 9 25 14 E 1031,0 4,9 0 0,0
12.01.2018 15:00:00 0,6 -0,3 0,4 0,5 0,6 4,3 14 8 28 15 E 1030,6 4,3 0 0,0
12.01.2018 14:00:00 0,8 -0,1 0,6 0,5 0,6 4,3 16 8 25 14 E 1030,3 4,6 0 0,0
12.01.2018 13:00:00 1,0 -0,3 0,7 0,4 0,6 4,3 12 6 22 12 E 1030,2 5 0 0,0
12.01.2018 12:00:00 0,9 -0,1 0,7 0,3 0,5 4,4 11 6 19 10 E 1030,0 5 0 0,0
12.01.2018 11:00:00 0,7 0,1 0,5 0,1 0,5 4,4 10 5 19 11 ENE 1029,9 3,9 0 0,0
12.01.2018 10:00:00 0,5 -0,1 0,4 0,0 0,5 4,4 9 5 17 9 ENE 1029,4 3,8 0 0,0
12.01.2018 09:00:00 0,3 0,0 0,3 -0,1 0,5 4,4 9 5 16 9 ENE 1028,9 1,6 0 0,0
12.01.2018 08:00:00 0,3 0,0 0,2 -0,2 0,5 4,4 10 5 18 10 ENE 1028,1 2,2 0 0,0
12.01.2018 07:00:00 0,4 0,0 0,2 -0,2 0,5 4,4 11 6 19 11 E 1027,5 3,0 0 0,0
12.01.2018 06:00:00 0,5 -0,1 0,3 -0,2 0,5 4,4 13 7 24 13 E 1027,0 5 0 0,0
12.01.2018 05:00:00 0,6 0,3 0,5 -0,2 0,5 4,4 11 6 19 11 E 1026,7 2,5 0 0,0
12.01.2018 04:00:00 0,7 0,2 0,6 -0,2 0,5 4,4 11 6 22 12 E 1026,1 2,8 0 0,0
12.01.2018 03:00:00 0,6 0,2 0,5 -0,2 0,5 4,4 13 7 22 12 E 1025,4 2,6 0 0,0
12.01.2018 02:00:00 0,7 0,2 0,6 -0,2 0,5 4,4 12 6 19 10 E 1024,9 2,7 0 0,0
12.01.2018 01:00:00 0,7 0,5 0,6 -0,2 0,5 4,4 11 6 18 10 E 1024,5 1,4 0 0,0
12.01.2018 00:00:00 0,6 0,6 0,5 -0,2 0,5 4,5 9 5 17 9 E 1023,9 1,2 0 0,0
11.01.2018 23:00:00 0,6 0,4 0,5 -0,2 0,5 4,5 10 6 18 10 E 1023,4 1,2 0 0,0
11.01.2018 22:00:00 0,6 0,6 0,5 -0,2 0,5 4,5 10 5 21 11 E 1022,9 1,4 0 0,0
11.01.2018 21:00:00 0,6 0,5 0,6 -0,2 0,5 4,5 11 6 19 10 E 1022,1 0,9 0 0,0
11.01.2018 20:00:00 0,7 0,7 0,6 -0,2 0,5 4,5 9 5 14 8 E 1021,3 0,3 0 0,0
11.01.2018 19:00:00 0,6 0,6 0,6 -0,2 0,5 4,5 8 5 16 9 E 1020,7 0,3 0 0,0
11.01.2018 18:00:00 0,6 0,6 0,5 -0,2 0,5 4,5 10 5 18 10 E 1020,2 0,4 0 0,0
11.01.2018 17:00:00 0,6 0,6 0,5 -0,2 0,5 4,5 9 5 15 8 E 1019,7 0,3 0 0,0
11.01.2018 16:00:00 0,6 0,6 0,5 -0,2 0,5 4,5 11 6 21 11 ESE 1018,8 0,5 0 0,0
11.01.2018 15:00:00 0,7 0,6 0,7 -0,2 0,5 4,5 12 7 19 11 E 1018,2 0,9 0 0,0
11.01.2018 14:00:00 0,7 0,5 0,7 -0,2 0,5 4,5 9 5 16 9 E 1017,7 1,6 0 0,0
11.01.2018 13:00:00 0,7 0,3 0,7 -0,2 0,5 4,5 11 6 16 9 ESE 1017,4 3,6 0 0,0
11.01.2018 12:00:00 0,6 0,2 0,5 -0,2 0,5 4,6 9 5 14 8 E 1017,2 4,2 0 0,5
11.01.2018 11:00:00 0,8 0,5 0,6 -0,2 0,5 4,6 10 5 15 8 E 1017,1 4,1 0 1,5
11.01.2018 10:00:00 1,0 0,8 1,0 -0,2 0,5 4,6 6 3 11 6 E 1016,3 3,1 0 1,7
11.01.2018 09:00:00 0,9 0,9 0,8 -0,2 0,5 4,6 5 3 9 5 ENE 1015,8 1,6 0 1,1
11.01.2018 08:00:00 0,8 0,8 0,7 -0,2 0,5 4,6 5 3 8 4 ENE 1015,5 0,6 0 0,6
11.01.2018 07:00:00 0,8 0,8 0,7 -0,2 0,5 4,6 4 2 6 3 NE 1015,1 0,3 0 1,0
11.01.2018 06:00:00 0,6 0,5 0,5 -0,2 0,5 4,6 3 1 4 2 N 1015,1 0,2 0 1,4
11.01.2018 05:00:00 0,8 0,8 0,7 -0,2 0,5 4,6 4 2 8 4 ENE 1014,9 0,2 0 0,0
11.01.2018 04:00:00 0,9 0,9 0,7 -0,2 0,5 4,6 6 3 11 6 ENE 1014,7 0,2 0 0,0
11.01.2018 03:00:00 0,9 0,8 0,7 -0,2 0,5 4,6 8 4 12 6 ENE 1014,6 0,5 0 0,0
11.01.2018 02:00:00 0,8 0,4 0,6 -0,2 0,5 4,6 6 3 9 5 ENE 1014,5 2,4 0 0,0
11.01.2018 01:00:00 1,1 0,5 0,8 -0,1 0,5 4,7 3 2 5 3 E 1014,5 3,5 0 0,0
11.01.2018 00:00:00 1,1 0,4 0,9 -0,1 0,5 4,7 5 3 10 5 SE 1014,6 3,1 0 0,0
10.01.2018 23:00:00 1,2 0,5 1,0 -0,1 0,5 4,7 7 4 9 5 ESE 1014,5 3,5 0 0,0
10.01.2018 22:00:00 1,2 0,7 0,9 -0,1 0,5 4,7 4 2 7 4 SE 1014,2 3,1 0 0,0
10.01.2018 21:00:00 1,3 0,5 1,1 -0,1 0,4 4,7 4 2 9 5 ESE 1014,2 3,5 0 0,0
10.01.2018 20:00:00 1,4 0,8 1,0 -0,1 0,4 4,7 8 5 14 8 ESE 1014,1 3,5 0 0,0
10.01.2018 19:00:00 1,5 0,8 1,3 -0,1 0,4 4,7 13 7 16 9 ESE 1013,9 0,9 0 0,0
10.01.2018 18:00:00 1,7 1,1 1,4 -0,1 0,4 4,7 9 5 13 7 E 1013,6 3,5 0 0,0
10.01.2018 17:00:00 1,8 1,1 1,5 -0,1 0,4 4,7 6 3 11 6 ESE 1013,8 4,1 0 0,0
10.01.2018 16:00:00 2,3 1,7 2,0 -0,1 0,4 4,8 7 4 15 8 SE 1013,7 3,3 0 0,0
10.01.2018 15:00:00 2,3 1,7 2,1 -0,1 0,4 4,8 10 5 16 9 SE 1013,3 3,4 0 0,0
10.01.2018 14:00:00 2,4 1,6 2,4 -0,1 0,4 4,8 11 6 16 8 ESE 1013,4 4,2 0 0,0
10.01.2018 13:00:00 2,1 1,6 2,2 -0,1 0,4 4,8 5 3 10 5 ESE 1013,7 2,8 0 0,0
10.01.2018 12:00:00 2,1 1,8 2,0 -0,1 0,4 4,8 9 5 16 9 SSE 1014,2 2,8 0 0,0
10.01.2018 11:00:00 1,8 1,2 1,6 -0,1 0,4 4,8 8 5 14 8 SE 1014,2 4,0 0 0,0
10.01.2018 10:00:00 1,4 1,0 0,9 -0,1 0,4 4,8 11 6 22 12 SE 1013,9 3,6 0 0,0
10.01.2018 09:00:00 1,1 0,6 0,7 -0,1 0,4 4,8 13 7 26 14 SE 1013,9 3,8 0 0,0
10.01.2018 08:00:00 1,2 0,7 1,0 -0,1 0,4 4,9 16 9 27 15 SE 1013,7 3,6 0 0,0

tt = temperature
td = dewpoint
tt 5cm = temperature 5cm
tt -5cm = temperature -5cm
tt -20cm = temperature -20cm
tt -100cm = temperature -100cm
ff = wind speed
fx = gusts
dd = wind direction
ppp = reduced air pressure
vv = visibility
sd = sunshine duration
rr = precipitation

Next stations